Location: Feigenhofen
(48.4939°N, 10.7793°E)
Time: 05:01:23
(UTC+00:00)

Cosmos 2298 Rocket - Pass Details

Date: 26 May 2022
Orbit: 775 x 784 km, 74.0° (Epoch: 24 June)

Event Time Altitude Azimuth Distance (km) Brightness Sun altitude
Exits shadow 00:07:41 38° 196° (SSW) 1,165 4.4 -19.4°
Maximum altitude 00:09:45 84° 111° (ESE) 788 4.0 -19.3°
Drops below altitude 10° 00:15:05 10° 24° (NNE) 2,340 7.7 -19.1°
Sets 00:17:29 0° 24° (NNE) 3,273 8.9 -19.0°
